Location: Newark
(40.9833°N, 0.0333°W)
Time: 02:25:30
(UTC+00:00)

deb Explorer IX - Pass Details

Date: 27 October 2020
Orbit: 537 x 1105 km, 38.8° (Epoch: 02 December)

Event Time Altitude Azimuth Distance (km) Brightness Sun altitude
Rises 03:48:42 0° 192° (SSW) 3,252 - -30.1°
Exits shadow 03:51:46 - 172° (S) 2,542 ? -29.5°
Reaches altitude 10° 03:52:18 10° 168° (SSE) 2,458 ? -29.4°
Maximum altitude 03:55:13 14° 138° (SE) 2,282 ? -28.9°
Drops below altitude 10° 03:58:20 10° 108° (ESE) 2,662 ? -28.3°
Sets 04:02:31 0° 86° (E) 3,731 ? -27.5°
